Regional Weather Roundup
Issued by NWS

Home | Current Version | Previous Version | Text Only | Print | Product List | Glossary Off
Versions: 1 2 3 4 5 6 7 8 9 10 11 12 13 14 15 16 17 18 19 20 21 22 23 24 25 26 27 28 29 30 31 32 33 34 35 36 37 38 39 40 41 42 43 44 45 46 47 48 49 50

000
ASUS43 KOAX 220002
RWRNE

WEATHER ROUNDUP FOR NEBRASKA
NATIONAL WEATHER SERVICE OMAHA NE
700 PM CDT MON AUG 21 2017

NOTES: SATELLITE DATA IS BEING USED TO AUGMENT CLOUD COVER ABOVE
       12000 FEET.
       "FAIR" INDICATES FEW OR NO CLOUDS BELOW 12,000 FEET WITH NO
       SIGNIFICANT WEATHER AND/OR OBSTRUCTIONS TO VISIBILITY.


NEZ001>004-019>022-054>056-220100-
NEBRASKA PANHANDLE

CITY           SKY/WX    TMP DP  RH WIND       PRES   REMARKS
SCOTTSBLUFF    SUNNY     82  47  29 NE8       30.14R
6HR MIN TEMP:  74; 6HR MAX TEMP:  84;

ALLIANCE       SUNNY     78  49  35 N16       30.12R
6HR MIN TEMP:  71; 6HR MAX TEMP:  81;

CHADRON        SUNNY     79  39  23 NE15      30.13R
6HR MIN TEMP:  72; 6HR MAX TEMP:  84;

GORDON         FAIR      78  49  35 N14G21    30.12R
6HR MIN TEMP:  69; 6HR MAX TEMP:  81;

KIMBALL        SUNNY     78  46  32 NE15      30.19S
SIDNEY         SUNNY     82  48  30 N17       30.15R
6HR MIN TEMP:  73; 6HR MAX TEMP:  84;

$$

NEZ057>060-069>072-079>082-220100-
SOUTHWEST NEBRASKA

CITY           SKY/WX    TMP DP  RH WIND       PRES   REMARKS
NORTH PLATTE   PTSUNNY   80  69  69 N17G24    30.01R
6HR MIN TEMP:  77; 6HR MAX TEMP:  86;

IMPERIAL       MOSUNNY   84  65  52 N13       30.03R
6HR MIN TEMP:  78; 6HR MAX TEMP:  88;

LEXINGTON      PTSUNNY   86  68  54 CALM      29.96S
MCCOOK         MOSUNNY   87  64  46 E6        29.96R
6HR MIN TEMP:  78; 6HR MAX TEMP:  89;

OGALLALA       SUNNY     82  64  54 N15       30.06R
$$

NEZ005>010-023>029-035>040-094-220100-
NORTH CENTRAL NEBRASKA

CITY           SKY/WX    TMP DP  RH WIND       PRES   REMARKS
VALENTINE      MOSUNNY   80  57  45 N16G23    30.06R
6HR MIN TEMP:  66; 6HR MAX TEMP:  82;

AINSWORTH      CLOUDY    74  67  78 N8        30.05S
BROKEN BOW     PTSUNNY   79  67  66 N13       29.99R
6HR MIN TEMP:  79; 6HR MAX TEMP:  86;

O`NEILL        CLOUDY    71  67  88 NE9       30.02S
ORD            MOSUNNY   76  66  71 N8        29.96R
6HR MIN TEMP:  76; 6HR MAX TEMP:  84;

THEDFORD       CLOUDY    76  67  74 N8        30.07S
$$

NEZ041-046>049-061>064-073>077-083>087-220100-
SOUTH CENTRAL NEBRASKA

CITY           SKY/WX    TMP DP  RH WIND       PRES   REMARKS
GRAND ISLAND   PTSUNNY   84  70  62 S13       29.93S
6HR MIN TEMP:  78; 6HR MAX TEMP:  87;

AURORA         MOSUNNY   82  70  68 SW7       29.93S
HASTINGS       MOSUNNY   82  67  60 SW5       29.95S
6HR MIN TEMP:  79; 6HR MAX TEMP:  86;

HEBRON         CLOUDY    84  70  63 S6        29.93F
HOLDREGE       CLOUDY    82  68  62 S3        29.95S
KEARNEY        CLOUDY    83  71  67 CALM      29.96R
$$

NEZ011>018-030>034-042>045-220100-
NORTHEAST NEBRASKA

CITY           SKY/WX    TMP DP  RH WIND       PRES   REMARKS
NORFOLK        CLOUDY    72  66  81 NE16      29.97R
6HR MIN TEMP:  68; 6HR MAX TEMP:  83; 6HR PCP: TRACE;

ALBION         MOSUNNY   77  69  77 NE7       29.96S
BLAIR          CLOUDY    80  73  79 E8        29.93F
COLUMBUS       PTSUNNY   80  73  79 E6        29.93R
FREMONT        CLOUDY    82  71  70 SE8       29.93S
TEKAMAH        CLOUDY    73  66  78 NE10      29.95R
6HR MIN TEMP:  71; 6HR MAX TEMP:  83; 6HR PCP:  0.06;

WAYNE          CLOUDY    67  64  91 NE5       30.01R
$$

NEZ050>053-065>068-078-088>093-220100-
SOUTHEAST NEBRASKA

CITY           SKY/WX    TMP DP  RH WIND       PRES   REMARKS
LINCOLN        CLOUDY    82  71  69 S12       29.91F
6HR MIN TEMP:  77; 6HR MAX TEMP:  85;

OMAHA EPPLEY   CLOUDY    81  72  74 E13       29.93F
6HR MIN TEMP:  77; 6HR MAX TEMP:  83;

BEATRICE       CLOUDY    83  73  69 S7        29.93F
FALLS CITY     CLOUDY    78  75  90 S12       29.91F
6HR MIN TEMP:  75; 6HR MAX TEMP:  87; 6HR PCP: TRACE;

NEBRASKA CITY  LGT RAIN  82  76  82 CALM      29.95S
PLATTSMOUTH    CLOUDY    80  73  78 SE7       29.92F
$$

NEZ044-045-051>053-067-220100-
OMAHA AREA

CITY           SKY/WX    TMP DP  RH WIND       PRES   REMARKS
OMAHA EPPLEY   CLOUDY    81  72  74 E13       29.93F
6HR MIN TEMP:  77; 6HR MAX TEMP:  83;

BLAIR          CLOUDY    80  73  79 E8        29.93F
FREMONT        CLOUDY    82  71  70 SE8       29.93S
MILLARD        CLOUDY    84  74  71 SE5       29.92F HX  90
OFFUTT AFB     CLOUDY    85  74  69 E6        29.91F HX  91
PLATTSMOUTH    CLOUDY    80  73  78 SE7       29.92F
WAHOO          FAIR      83  73  73 SE7       29.92F
$$



USA.gov is the U.S. government's official web portal to all federal, state and local government web resources and services.